Preview of NWS' New Version of Forecast
This preview is not operational and should not be used for support decisions.

Regional Weather Roundup (RWR)

Issued by National Weather Service (NWS)

                            
000
ASUS45 KABQ 200410
RWRNM 
NEW MEXICO REGIONAL WEATHER ROUNDUP
NATIONAL WEATHER SERVICE ALBUQUERQUE NM
900 PM MST TUE FEB 19 2019

NOTE: "FAIR" MEANS FEW OR NO CLOUDS BELOW 12,000 FEET AGL WITH NO
       SIGNIFICANT WEATHER OR OBSTRUCTIONS TO VISION.

      THIS PRODUCT IS RELEASED AS TWO VERSIONS.  ONE VERSION NEAR
      THE TOP OF THE HOUR CONTAINING PRELIMINARY DATA FROM ALBUQUERQUE
      AND OTHER STATIONS.  A FINAL VERSION WITH ADDITIONAL DATA IS 
      ISSUED ABOUT 10 MINUTES AFTER THE HOUR.
 
NMZ501-503-504-510>518-200500-
NORTHWEST PLATEAU/NORTHCENTRAL MOUNTAINS
  
CITY           SKY/WX    TMP DP  RH WIND       PRES   REMARKS
FARMINGTON     FAIR      20  15  81 W6        29.81R WCI  12          
LOS ALAMOS     FAIR      19   7  57 W9        29.72S WCI   9          
SANTA FE       FAIR      20  16  84 W10       29.75R WCI   9          
TAOS           MOCLDY    14  11  87 SW7       29.73R WCI   4          
ANGEL FIRE     LGT SNOW  14   7  75 W13G25    29.63S WCI   0          

$$
NMZ402-403-502-505>509-200500-
WESTCENTRAL MOUNTAINS/SOUTHWEST MOUNTAINS
  
CITY           SKY/WX    TMP DP  RH WIND       PRES   REMARKS
GALLUP         LGT SNOW  16  13  88 CALM      29.83R FOG              
GRANTS         CLOUDY    17  13  82 W3        29.83R                  
SILVER CITY    FAIR      25  16  67 W10       29.94S WCI  15          

$$
NMZ407-409-411-412-200500-
SOUTHERN DESERTS
  
CITY           SKY/WX    TMP DP  RH WIND       PRES   REMARKS
DEMING         FAIR      33  11  39 W12       29.98R WCI  24          
LAS CRUCES     FAIR      33  17  51 W15       29.96S WCI  23          
ALAMOGORDO     FAIR      32  14  47 MISG      29.94R                  
T OR C         FAIR      29  18  63 S6        29.90R WCI  23          

$$
NMZ519>523-200500-
CENTRAL VALLEYS/CENTRAL HIGHLANDS
  
CITY           SKY/WX    TMP DP  RH WIND       PRES   REMARKS
ALBUQUERQUE    FAIR      27  18  69 N6        29.83R WCI  20          
DOUBLE EAGLE   PTCLDY    21  18  86 W7        29.82R WCI  13          
MORIARTY ARPT  FAIR      25  18  74 W15       29.79R WCI  13          
CLINES CORNERS FAIR      13   9  84 W12       29.74R WCI  -1          
BELEN          FAIR      27  16  64 SW7       29.86R WCI  19          
SOCORRO        FAIR      28  19  69 CALM      29.87S                  

$$
NMZ524>526-539-540-200500-
SOUTHCENTRAL MOUNTAINS
  
CITY           SKY/WX    TMP DP  RH WIND       PRES   REMARKS
RUIDOSO        NOT AVBL                                               

$$
NMZ527>531-200500-
NORTHEAST HIGHLANDS/NORTHEAST PLAINS
  
CITY           SKY/WX    TMP DP  RH WIND       PRES   REMARKS
LAS VEGAS      FAIR      12   7  80 SW14      29.67R WCI  -3          
RATON          CLOUDY    18  15  88 SW8       29.63F WCI   8          
CLAYTON        FAIR      17  14  88 SW17      29.68S WCI   1          

$$
NMZ532>537-200500-
EASTCENTRAL PLAINS
  
CITY           SKY/WX    TMP DP  RH WIND       PRES   REMARKS
SANTA ROSA     FAIR      24  22  94 S7        29.79S WCI  15          
TUCUMCARI      FAIR      27  18  69 SW16G22   29.76S WCI  15          
CANNON AFB     CLOUDY    25  22  90 S12       29.84F WCI  14          
CLOVIS AIRPORT LGT SNOW  25  23  92 S15       29.84F FOG     WCI  13  

$$
NMZ028-029-538-200500-
SOUTHEAST PLAINS
  
CITY           SKY/WX    TMP DP  RH WIND       PRES   REMARKS
ROSWELL        FLURRIES  35  22  58 VRB3      29.88S                  
ARTESIA        FAIR      37  16  41 W10G18    29.90R WCI  30          
CARLSBAD       FAIR      41  14  33 W21       29.90R                  
HOBBS          FAIR      25  18  74 S9        29.89S WCI  15          


$$